TimeCST,TemperatureF,Dew PointF,Humidity,Sea Level PressureIn,VisibilityMPH,Wind Direction,Wind SpeedMPH,Gust SpeedMPH,PrecipitationIn,Events,Conditions,WindDirDegrees,DateUTC
12:54 AM,44.1,36.0,73,30.00,10.0,SSE,9.2,-,0.00,,Overcast,150,2012-12-15 06:54:00
1:54 AM,45.0,35.1,68,29.97,10.0,SSE,11.5,-,N/A,,Mostly Cloudy,160,2012-12-15 07:54:00
2:54 AM,45.0,35.1,68,29.97,10.0,SSE,11.5,-,N/A,,Overcast,160,2012-12-15 08:54:00
3:54 AM,44.1,39.0,82,29.96,9.0,SSE,12.7,-,0.02,Rain,Rain,160,2012-12-15 09:54:00
4:54 AM,43.0,39.9,89,29.90,10.0,SE,13.8,-,0.04,Rain,Light Rain,140,2012-12-15 10:54:00
5:54 AM,43.0,42.1,97,29.89,4.0,SSE,13.8,-,0.07,Rain,Heavy Rain,150,2012-12-15 11:54:00
6:54 AM,44.1,43.0,96,29.82,5.0,SE,20.7,29.9,0.17,Rain,Light Rain,140,2012-12-15 12:54:00
7:12 AM,44.6,44.6,100,29.80,10.0,SE,20.7,29.9,0.00,Rain,Light Rain,140,2012-12-15 13:12:00
7:42 AM,44.6,44.6,100,29.79,10.0,SSE,20.7,26.5,0.00,,Overcast,150,2012-12-15 13:42:00
7:54 AM,46.0,45.0,96,29.80,10.0,SSE,18.4,-,0.00,,Overcast,160,2012-12-15 13:54:00
8:06 AM,46.4,46.4,100,29.79,10.0,SSE,18.4,34.5,0.01,,Overcast,160,2012-12-15 14:06:00
8:47 AM,48.2,46.4,93,29.78,10.0,South,23.0,36.8,0.01,,Overcast,170,2012-12-15 14:47:00
8:54 AM,46.9,46.0,97,29.78,6.0,South,20.7,29.9,0.01,Rain,Light Rain,170,2012-12-15 14:54:00
9:08 AM,46.4,46.4,100,29.76,2.5,SSE,21.9,28.8,0.01,,Overcast,160,2012-12-15 15:08:00
9:23 AM,46.4,46.4,100,29.76,3.0,SSE,20.7,27.6,0.01,Rain,Light Rain,160,2012-12-15 15:23:00
9:54 AM,46.9,46.9,100,29.76,6.0,SSE,18.4,28.8,0.02,Rain,Light Rain,160,2012-12-15 15:54:00
10:01 AM,46.4,46.4,100,29.75,7.0,SSE,20.7,29.9,0.00,Rain,Light Rain,160,2012-12-15 16:01:00
10:18 AM,46.4,46.4,100,29.74,7.0,South,20.7,26.5,0.00,,Overcast,170,2012-12-15 16:18:00
10:52 AM,48.2,48.2,100,29.73,8.0,South,20.7,33.4,0.00,,Overcast,180,2012-12-15 16:52:00
10:54 AM,48.0,48.0,100,29.73,8.0,South,20.7,-,0.00,,Overcast,180,2012-12-15 16:54:00
11:32 AM,48.2,48.2,100,29.71,5.0,South,15.0,-,0.00,Rain,Light Rain,180,2012-12-15 17:32:00
11:54 AM,48.0,48.0,100,29.70,5.0,South,17.3,25.3,0.00,Rain,Light Rain,180,2012-12-15 17:54:00
12:54 PM,50.0,50.0,100,29.66,10.0,South,15.0,-,0.00,,Overcast,180,2012-12-15 18:54:00
1:54 PM,52.0,51.1,97,29.62,10.0,South,18.4,29.9,N/A,,Overcast,180,2012-12-15 19:54:00
2:54 PM,53.1,51.1,93,29.62,10.0,South,16.1,28.8,N/A,,Overcast,190,2012-12-15 20:54:00
3:54 PM,54.0,50.0,86,29.62,10.0,South,19.6,24.2,N/A,,Overcast,190,2012-12-15 21:54:00
4:54 PM,54.0,51.1,90,29.64,10.0,SSW,15.0,23.0,N/A,,Overcast,200,2012-12-15 22:54:00
5:54 PM,54.0,51.1,90,29.66,10.0,SSW,11.5,-,N/A,,Overcast,200,2012-12-15 23:54:00
6:54 PM,54.0,51.1,90,29.67,10.0,SSW,15.0,-,N/A,,Overcast,200,2012-12-16 00:54:00
7:54 PM,54.0,51.1,90,29.68,10.0,SSW,12.7,-,N/A,,Overcast,210,2012-12-16 01:54:00
8:22 PM,53.6,51.8,94,29.69,10.0,WSW,11.5,-,N/A,,Overcast,240,2012-12-16 02:22:00
8:54 PM,52.0,51.1,97,29.69,10.0,SW,10.4,-,N/A,,Overcast,220,2012-12-16 02:54:00
9:04 PM,51.8,51.8,100,29.69,10.0,SW,11.5,-,N/A,,Overcast,220,2012-12-16 03:04:00
9:14 PM,51.8,51.8,100,29.68,10.0,SW,10.4,-,N/A,,Overcast,220,2012-12-16 03:14:00
9:26 PM,51.8,50.0,94,29.68,10.0,SSW,9.2,-,N/A,,Overcast,210,2012-12-16 03:26:00
9:54 PM,52.0,50.0,93,29.69,10.0,SW,12.7,-,N/A,,Overcast,220,2012-12-16 03:54:00
10:54 PM,51.1,50.0,96,29.69,10.0,SW,13.8,-,N/A,,Overcast,220,2012-12-16 04:54:00
11:54 PM,50.0,50.0,100,29.69,10.0,SW,9.2,-,N/A,,Overcast,220,2012-12-16 05:54:00